This is the latest recevied weather packets stored in our database for station/object N8ESC. If no packets are shown the sender has not sent any weather packets the latest 10 day(s).
| Time | Temp. | Humidity | Pressure | Rain* | Wind** | Luminosity | Snow |
|---|---|---|---|---|---|---|---|
| 1777641362 | 2.22° C | 69% | 1015.6 hPa | 0 mm | - | 122 W/m² | - |
| 1777641057 | 2.22° C | 68% | 1015.6 hPa | 0 mm | - | 116 W/m² | - |
| 1777640147 | 2.22° C | 72% | 1015.6 hPa | 0 mm | - | 105 W/m² | - |
| 1777639844 | 1.67° C | 72% | 1015.5 hPa | 0 mm | - | 96 W/m² | - |
| 1777639238 | 1.67° C | 73% | 1015.4 hPa | 0 mm | - | 86 W/m² | - |
| 1777638630 | 1.67° C | 73% | 1015.5 hPa | 0 mm | - | 75 W/m² | - |
| 1777638327 | 1.67° C | 74% | 1015.5 hPa | 0 mm | - | 68 W/m² | - |
| 1777638023 | 1.67° C | 74% | 1015.6 hPa | 0 mm | - | 64 W/m² | - |
| 1777637720 | 1.67° C | 75% | 1015.3 hPa | 0 mm | - | 60 W/m² | - |
| 1777637114 | 1.11° C | 77% | 1015.3 hPa | 0 mm | - | 51 W/m² | - |
| 1777636810 | 1.11° C | 77% | 1015.4 hPa | 0 mm | - | 48 W/m² | - |
| 1777635593 | 1.11° C | 81% | 1015.3 hPa | 0 mm | - | 35 W/m² | - |
| 1777635290 | 1.11° C | 82% | 1015.3 hPa | 0 mm | - | 31 W/m² | - |
| 1777634987 | 1.11° C | 81% | 1015.4 hPa | 0 mm | - | 26 W/m² | - |
| 1777634683 | 0.56° C | 82% | 1015.1 hPa | 0 mm | - | 24 W/m² | - |
| 1777634381 | 0.56° C | 82% | 1015.2 hPa | 0 mm | - | 22 W/m² | - |
| 1777634077 | 0.56° C | 83% | 1015 hPa | 0 mm | - | 19 W/m² | - |
| 1777633773 | 0.56° C | 83% | 1015 hPa | 0 mm | - | 16 W/m² | - |
| 1777633472 | 0.56° C | 84% | 1015.1 hPa | 0 mm | - | 13 W/m² | - |
| 1777633170 | 0.56° C | 84% | 1014.8 hPa | 0 mm | - | 10 W/m² | - |
| 1777632866 | 0.56° C | 84% | 1015 hPa | 0 mm | - | 8 W/m² | - |
| 1777632561 | 0.56° C | 85% | 1014.8 hPa | 0 mm | - | 6 W/m² | - |
| 1777632259 | 0.56° C | 85% | 1014.9 hPa | 0 mm | - | 4 W/m² | - |
| 1777631956 | 0.56° C | 85% | 1014.8 hPa | 0 mm | - | 3 W/m² | - |
| 1777631655 | 0.56° C | 84% | 1014.9 hPa | 0 mm | - | 2 W/m² | - |
* Rain latest hour (hover to see other rain measurements)
** Current wind speed in m/s (hover to see current wind gust speed)